RANA Weather Reports


Display with metric or nautical units.
time (UTC)temp
F
wind
direction
speed
MPH
gust
MPH
rain 1hr
in
rain 24hr
in
rain mn
in
humidity
%
barometer
mb
20260502205011 64 104 16.0 18.0 0.00 0.00 0.00 29
20260502204010 64 98 16.0 18.0 0.00 0.00 0.00 29
20260502203511 64 95 16.0 18.0 0.00 0.00 0.00 29
20260502203011 64 98 16.0 18.0 0.00 0.00 0.00 28
20260502202509 64 98 16.0 20.0 0.00 0.00 0.00 28
20260502202011 64 93 16.0 18.0 0.00 0.00 0.00 28
20260502201511 64 96 16.0 18.0 0.00 0.00 0.00 28
20260502201009 64 88 16.0 18.0 0.00 0.00 0.00 28
20260502200509 64 91 16.0 18.0 0.00 0.00 0.00 28
20260502200010 64 87 16.0 18.0 0.00 0.00 0.00 28
20260502195510 64 85 16.0 18.0 0.00 0.00 0.00 28
20260502195009 64 89 13.0 16.0 0.00 0.00 0.00 28
20260502194511 66 87 16.0 20.0 0.00 0.00 0.00 28
20260502194010 66 86 16.0 18.0 0.00 0.00 0.00 28
20260502193510 66 89 16.0 20.0 0.00 0.00 0.00 28
20260502193010 66 90 16.0 20.0 0.00 0.00 0.00 28
20260502192511 66 88 16.0 18.0 0.00 0.00 0.00 28
20260502192010 66 90 16.0 20.0 0.00 0.00 0.00 28
20260502191511 66 90 13.0 16.0 0.00 0.00 0.00 28
20260502191010 66 94 16.0 18.0 0.00 0.00 0.00 28
20260502190510 66 91 16.0 18.0 0.00 0.00 0.00 28
20260502190012 66 89 16.0 18.0 0.00 0.00 0.00 28
20260502185011 66 89 18.0 20.0 0.00 0.00 0.00 28
20260502184510 66 91 18.0 20.0 0.00 0.00 0.00 28
20260502184009 66 90 18.0 20.0 0.00 0.00 0.00 28
20260502183510 66 85 18.0 20.0 0.00 0.00 0.00 28
20260502183010 66 88 16.0 18.0 0.00 0.00 0.00 28
20260502182503 66 86 16.0 16.0 0.00 0.00 0.00 29
20260502182011 66 86 13.0 16.0 0.00 0.00 0.00 29
20260502181510 66 85 13.0 16.0 0.00 0.00 0.00 29
20260502181010 66 89 16.0 18.0 0.00 0.00 0.00 29
20260502180510 66 87 18.0 20.0 0.00 0.00 0.00 29
20260502170511 70 81 16.0 18.0 0.00 0.00 0.00 28
20260502164010 70 81 13.0 18.0 0.00 0.00 0.00 29
20260502163510 70 91 9.0 11.0 0.00 0.00 0.00 29
20260502163011 70 81 9.0 13.0 0.00 0.00 0.00 28
20260502162509 70 78 11.0 13.0 0.00 0.00 0.00 28
20260502162010 70 89 9.0 11.0 0.00 0.00 0.00 28
20260502161511 70 67 9.0 11.0 0.00 0.00 0.00 28
20260502161009 72 103 9.0 11.0 0.00 0.00 0.00 27
20260502160511 70 90 13.0 16.0 0.00 0.00 0.00 27
20260502152011 70 88 7.0 9.0 0.00 0.00 0.00 26
20260502151510 70 77 4.0 9.0 0.00 0.00 0.00 26
20260502151010 72 83 4.0 4.0 0.00 0.00 0.00 26
20260502150510 72 107 4.0 7.0 0.00 0.00 0.00 26
20260502130511 70 91 4.0 7.0 0.00 0.00 0.00 30
20260502123510 70 97 7.0 9.0 0.00 0.00 0.00 31
20260502123011 70 108 7.0 9.0 0.00 0.00 0.00 31
20260502122510 72 92 4.0 7.0 0.00 0.00 0.00 31
20260502122013 70 95 2.0 4.0 0.00 0.00 0.00 32
20260502121511 70 81 4.0 9.0 0.00 0.00 0.00 32
20260502121011 68 89 4.0 7.0 0.00 0.00 0.00 34
20260502120511 68 104 11.0 13.0 0.00 0.00 0.00 33
20260502115510 70 111 7.0 9.0 0.00 0.00 0.00 32
20260502115011 70 138 0.0 2.0 0.00 0.00 0.00 33
20260502114511 68 91 9.0 11.0 0.00 0.00 0.00 34
20260502114010 68 76 7.0 9.0 0.00 0.00 0.00 34
20260502113510 70 97 9.0 11.0 0.00 0.00 0.00 33
20260502113011 68 106 7.0 9.0 0.00 0.00 0.00 34
20260502112510 68 124 9.0 11.0 0.00 0.00 0.00 34
20260502112012 68 71 0.0 2.0 0.00 0.00 0.00 35
20260502111511 68 44 4.0 7.0 0.00 0.00 0.00 34
20260502111010 68 102 7.0 9.0 0.00 0.00 0.00 33
20260502110511 68 128 0.0 2.0 0.00 0.00 0.00 35
20260502110011 66 85 4.0 7.0 0.00 0.00 0.00 36
20260502105510 68 82 7.0 9.0 0.00 0.00 0.00 35
20260502105010 68 85 9.0 9.0 0.00 0.00 0.00 35
20260502104510 68 97 7.0 9.0 0.00 0.00 0.00 36
20260502104010 66 150 2.0 7.0 0.00 0.00 0.00 37
20260502103510 66 113 4.0 7.0 0.00 0.00 0.00 37
20260502103011 66 111 7.0 13.0 0.00 0.00 0.00 37
20260502102511 66 114 4.0 4.0 0.00 0.00 0.00 38
20260502102013 66 92 7.0 9.0 0.00 0.00 0.00 38
20260502101511 66 74 7.0 9.0 0.00 0.00 0.00 37
20260502101010 66 117 9.0 11.0 0.00 0.00 0.00 37
20260502100510 68 82 4.0 9.0 0.00 0.00 0.00 37
20260502091510 64 107 9.0 9.0 0.00 0.00 0.00 42
20260502091011 64 116 7.0 9.0 0.00 0.00 0.00 42
20260502090510 63 111 4.0 11.0 0.00 0.00 0.00 44
20260502071510 57 95 7.0 7.0 0.00 0.00 0.00 46
20260502071010 57 85 4.0 7.0 0.00 0.00 0.00 47
20260502070510 57 125 4.0 7.0 0.00 0.00 0.00 47
20260502070010 57 104 4.0 7.0 0.00 0.00 0.00 47
20260502065511 57 118 4.0 4.0 0.00 0.00 0.00 48
20260502065010 57 109 2.0 4.0 0.00 0.00 0.00 48
20260502064510 57 97 4.0 4.0 0.00 0.00 0.00 46
20260502064010 55 96 4.0 4.0 0.00 0.00 0.00 46
20260502063511 57 98 4.0 7.0 0.00 0.00 0.00 47
20260502063010 55 93 4.0 4.0 0.00 0.00 0.00 46
20260502062510 55 106 4.0 4.0 0.00 0.00 0.00 47
20260502062014 55 115 4.0 4.0 0.00 0.00 0.00 46
20260502061510 55 105 2.0 4.0 0.00 0.00 0.00 46
20260502061010 55 103 4.0 4.0 0.00 0.00 0.00 46
20260502060511 55 100 2.0 4.0 0.00 0.00 0.00 46
20260502060010 55 96 2.0 2.0 0.00 0.00 0.00 45
20260502055510 55 104 4.0 4.0 0.00 0.00 0.00 44
20260502055011 55 111 4.0 4.0 0.00 0.00 0.00 43
20260502054511 55 100 4.0 7.0 0.00 0.00 0.00 43
20260502054010 55 95 4.0 4.0 0.00 0.00 0.00 43
20260502053511 57 90 4.0 4.0 0.00 0.00 0.00 43
20260502053010 57 101 2.0 4.0 0.00 0.00 0.00 43
20260502052510 57 94 2.0 4.0 0.00 0.00 0.00 42
20260502052014 59 96 2.0 2.0 0.00 0.00 0.00 42
20260502051509 57 96 0.0 2.0 0.00 0.00 0.00 42
20260502051010 59 247 2.0 2.0 0.00 0.00 0.00 41
20260502050511 59 247 0.0 0.0 0.00 0.00 0.00 41
20260502050011 59 248 0.0 2.0 0.00 0.00 0.00 41
20260502044510 59 248 0.0 0.0 0.00 0.00 0.00 41
20260502044016 59 248 0.0 2.0 0.00 0.00 0.00 41
20260502042014 59 248 0.0 0.0 0.00 0.00 0.00 41
20260502041510 59 248 0.0 0.0 0.00 0.00 0.00 42
20260502040510 57 248 0.0 0.0 0.00 0.00 0.00 43
20260502035510 55 248 0.0 0.0 0.00 0.00 0.00 44
20260502031511 55 247 0.0 0.0 0.00 0.00 0.00 44
20260502031011 55 247 2.0 2.0 0.00 0.00 0.00 44
20260502030510 55 247 0.0 0.0 0.00 0.00 0.00 43
20260502025511 55 247 0.0 0.0 0.00 0.00 0.00 44
20260502023510 55 247 0.0 0.0 0.00 0.00 0.00 43
20260502023010 55 247 0.0 0.0 0.00 0.00 0.00 44
20260502022510 55 247 0.0 0.0 0.00 0.00 0.00 43
20260502022012 55 247 0.0 2.0 0.00 0.00 0.00 43
20260502021511 55 247 0.0 0.0 0.00 0.00 0.00 43
20260502020504 55 247 0.0 2.0 0.00 0.00 0.00 43
20260502015510 55 247 2.0 2.0 0.00 0.00 0.00 43
20260502015010 55 247 2.0 4.0 0.00 0.00 0.00 43
20260502014004 55 247 4.0 4.0 0.00 0.00 0.00 43
20260502012510 55 247 2.0 2.0 0.00 0.00 0.00 43
20260502012013 55 209 2.0 2.0 0.00 0.00 0.00 43
20260502011510 55 209 0.0 0.0 0.00 0.00 0.00 43
20260502010510 55 209 0.0 2.0 0.00 0.00 0.00 42
20260502010011 55 209 2.0 2.0 0.00 0.00 0.00 42
20260502005510 55 209 0.0 0.0 0.00 0.00 0.00 42
20260502005011 55 209 0.0 2.0 0.00 0.00 0.00 41
20260502004511 57 209 0.0 2.0 0.00 0.00 0.00 40
20260502004011 57 209 2.0 2.0 0.00 0.00 0.00 41
20260502003511 55 214 2.0 2.0 0.00 0.00 0.00 41
20260502003011 55 204 2.0 2.0 0.00 0.00 0.00 42
20260502002510 55 234 4.0 4.0 0.00 0.00 0.00 41
20260502002012 57 212 4.0 4.0 0.00 0.00 0.00 40
20260502001011 57 140 2.0 2.0 0.00 0.00 0.00 39
20260502000510 57 133 2.0 2.0 0.00 0.00 0.00 39
20260502000011 57 196 2.0 2.0 0.00 0.00 0.00 39
20260501235510 57 124 0.0 2.0 0.00 0.00 0.00 38
20260501235011 57 124 2.0 2.0 0.00 0.00 0.00 38
20260501234510 57 124 0.0 0.0 0.00 0.00 0.00 38
20260501234010 59 124 2.0 2.0 0.00 0.00 0.00 38
20260501233510 57 133 2.0 2.0 0.00 0.00 0.00 38
20260501233010 59 113 0.0 2.0 0.00 0.00 0.00 38
20260501232510 59 123 2.0 2.0 0.00 0.00 0.00 38
20260501232013 59 115 4.0 4.0 0.00 0.00 0.00 38
20260501231510 59 115 0.0 2.0 0.00 0.00 0.00 37
20260501231011 59 115 2.0 4.0 0.00 0.00 0.00 37
20260501230510 59 110 4.0 4.0 0.00 0.00 0.00 37
20260501230010 59 103 2.0 2.0 0.00 0.00 0.00 37
20260501225510 59 103 2.0 4.0 0.00 0.00 0.00 37
20260501225011 57 103 0.0 2.0 0.00 0.00 0.00 37
20260501224510 59 103 0.0 0.0 0.00 0.00 0.00 37
20260501224010 59 103 2.0 2.0 0.00 0.00 0.00 36
20260501223510 59 102 2.0 4.0 0.00 0.00 0.00 36
20260501223011 59 103 0.0 2.0 0.00 0.00 0.00 36
20260501222510 61 93 7.0 7.0 0.00 0.00 0.00 36
20260501222011 59 95 2.0 4.0 0.00 0.00 0.00 36
20260501221511 61 86 2.0 2.0 0.00 0.00 0.00 36
20260501221011 61 78 2.0 2.0 0.00 0.00 0.00 36
20260501220515 61 79 4.0 4.0 0.00 0.00 0.00 35
20260501220010 61 86 4.0 4.0 0.00 0.00 0.00 36
20260501215511 61 90 2.0 4.0 0.00 0.00 0.00 35
20260501215011 61 86 4.0 7.0 0.00 0.00 0.00 35
20260501214509 61 79 4.0 7.0 0.00 0.00 0.00 35
20260501214010 61 79 4.0 4.0 0.00 0.00 0.00 36
20260501213510 61 82 7.0 7.0 0.00 0.00 0.00 36
20260501213009 61 83 7.0 7.0 0.00 0.00 0.00 36
20260501212511 61 77 4.0 7.0 0.00 0.00 0.00 36
20260501212013 61 76 4.0 4.0 0.00 0.00 0.00 36
20260501211510 61 85 4.0 4.0 0.00 0.00 0.00 36
20260501211010 61 76 7.0 7.0 0.00 0.00 0.00 36
20260501210511 61 92 4.0 4.0 0.00 0.00 0.00 36
20260501210011 61 89 4.0 4.0 0.00 0.00 0.00 36
20260501205510 61 84 7.0 7.0 0.00 0.00 0.00 36